This demonstration page uses our WeatherBlox Daily Observations layout. Learn more.

Hourly Observations for October 7, 2017

Temp ( °F °C ) Dew Point ( °F °C ) Humidity (%) Winds ( mph kmh ) Pressure ( in mb ) Visibility ( mi km ) Precip ( " mm )
12:54 am 00:54 Cloudy 57 13.9 55 12.8 93 93 N 8 13 32.45 1099 10 16.09344 0.001 0.001
1:31 am 01:31 Cloudy 57 13.9 55 12.8 93 93 N 6 9 29.53 1000 10 16.09344 0 0
1:54 am 01:54 Cloudy 57 13.9 55 12.8 93 93 ENE 6 9 32.45 1099 10 16.09344 0 0
2:50 am 02:50 Cloudy with Mist and Fog 57 14 55 13 94 94 WNW 9 15 29.53 1000 3 4.828032 0 0
2:54 am 02:54 Cloudy with Mist and Fog 57 13.9 55 12.8 93 93 WNW 9 15 32.45 1099 3 4.828032 0 0
3:01 am 03:01 Cloudy with Light Rain 57 13.9 56 13.3 96 96 WNW 9 15 29.53 1000 2.5 4.02336 0.001 0.001
3:44 am 03:44 Cloudy with Light Rain 56 13.3 55 12.8 97 97 WNW 13 20 29.53 1000 2.5 4.02336 0.03 0.762
3:54 am 03:54 Cloudy with Light Rain 56 13.3 55 12.8 97 97 WNW 13 20 32.45 1099 2.5 4.02336 0.03 0.762
4:01 am 04:01 Cloudy with Light Rain 56 13.3 55 12.8 97 97 WNW 12 19 29.53 1000 3 4.828032 0.001 0.001
4:19 am 04:19 Cloudy with Light Rain 56 13.3 55 12.8 97 97 WNW 13 20 29.53 1000 3 4.828032 0.01 0.254
4:54 am 04:54 Cloudy with Light Rain 56 13.3 55 12.8 97 97 WNW 12 19 32.45 1099 4 6.437376 0.02 0.508
5:21 am 05:21 Cloudy 56 13.3 55 12.8 97 97 WNW 14 22 29.53 1000 8 12.874752 0.001 0.001
5:31 am 05:31 Cloudy 57 13.9 54 12.2 90 90 NW 20 31 29.56 1001 10 16.09344 0.001 0.001
5:54 am 05:54 Cloudy 56 13.3 53 11.7 90 90 NW 20 31 29.53 1000 10 16.09344 0.001 0.001
6:35 am 06:35 Cloudy with Light Rain 56 13.3 53 11.7 90 90 NW 14 22 29.56 1001 10 16.09344 0.001 0.001
6:54 am 06:54 Cloudy 55 12.8 52 11.1 90 90 WNW 15 24 29.56 1001 10 16.09344 0.001 0.001
7:07 am 07:07 Cloudy with Light Rain 55 12.8 51 10.6 87 87 WNW 14 22 29.56 1001 10 16.09344 0.001 0.001
7:14 am 07:14 Cloudy with Light Rain 55 12.8 51 10.6 87 87 NW 18 30 29.56 1001 10 16.09344 0.001 0.001
7:21 am 07:21 Cloudy with Light Rain 54 12.2 51 10.6 90 90 WNW 17 28 29.59 1002 8 12.874752 0.001 0.001
7:52 am 07:52 Cloudy with Light Rain 52 11 50 10 94 94 WNW 12 19 29.59 1002 4 6.437376 0.03 0.762
7:54 am 07:54 Cloudy with Light Rain 52 11.1 50 10 93 93 WNW 9 15 29.56 1001 4 6.437376 0.03 0.762
8:54 am 08:54 Cloudy 54 12.2 50 10 87 87 WNW 9 15 29.59 1002 10 16.09344 0.01 0.254
9:01 am 09:01 Cloudy 54 12.2 50 10 87 87 WNW 8 13 29.62 1003 10 16.09344 0 0
9:54 am 09:54 Cloudy 55 12.8 51 10.6 87 87 WNW 8 13 29.59 1002 10 16.09344 0.01 0.254
10:54 am 10:54 Mostly Cloudy 58 14.4 53 11.7 84 84 W 14 22 29.62 1003 10 16.09344 0.001 0.001
11:54 am 11:54 Sunny 63 17.2 53 11.7 70 70 WNW 12 19 29.62 1003 10 16.09344 0 0
12:54 pm 12:54 Sunny 66 18.9 52 11.1 61 61 W 10 17 29.62 1003 10 16.09344 0 0
1:54 pm 13:54 Sunny 70 21.1 51 10.6 51 51 WSW 14 22 29.62 1003 10 16.09344 0 0
2:54 pm 14:54 Sunny 72 22.2 50 10 46 46 SW 16 26 29.62 1003 10 16.09344 0 0
3:54 pm 15:54 Sunny 74 23.3 51 10.6 45 45 WSW 15 24 29.62 1003 10 16.09344 0 0
4:54 pm 16:54 Sunny 75 23.9 50 10 41 41 WSW 14 22 29.59 1002 10 16.09344 0 0
5:54 pm 17:54 Sunny 75 23.9 46 7.8 36 36 WSW 12 19 29.59 1002 10 16.09344 0 0
6:54 pm 18:54 Sunny 70 21.1 48 8.9 46 46 SW 6 9 29.62 1003 10 16.09344 0 0
7:54 pm 19:54 Clear 61 16.1 50 10 67 67 SSW 6 9 29.62 1003 10 16.09344 0 0
8:54 pm 20:54 Clear 58 14.4 50 10 75 75 S 6 9 29.65 1004 10 16.09344 0 0
9:54 pm 21:54 Clear 59 15 49 9.4 69 69 SSE 5 7 29.65 1004 10 16.09344 0 0
10:54 pm 22:54 Clear 58 14.4 49 9.4 72 72 SSE 5 7 29.65 1004 10 16.09344 0 0
11:54 pm 23:54 Clear 56 13.3 49 9.4 77 77 SE 3 6 29.65 1004 10 16.09344 0 0

Powered by AerisWeather